FW0384 Weather Reports


Display with metric or nautical units.
time (UTC)temp
F
wind
direction
speed
MPH
gust
MPH
rain 1hr
in
rain 24hr
in
rain mn
in
humidity
%
barometer
mb
20260506154515 60 91 0.0 2.0 0.00 1.21 0.83 71 1008.6
20260506153014 61 86 0.0 1.0 0.00 1.21 0.83 69 1008.6
20260506151515 62 137 0.0 6.0 0.00 1.21 0.83 67 1008.6
20260506150017 63 187 0.0 1.0 0.00 1.21 0.83 66 1008.6
20260506144513 63 49 0.0 7.0 0.00 1.21 0.83 69 1008.5
20260506143010 62 87 0.0 2.0 0.00 1.21 0.83 71 1008.6
20260506141507 60 307 1.0 5.0 0.00 1.21 0.83 74 1008.8
20260506140006 61 118 0.0 1.0 0.00 1.21 0.83 73 1008.9
20260506134516 61 113 0.0 1.0 0.00 1.21 0.83 75 1009.1
20260506133000 60 78 0.0 0.0 0.00 1.21 0.83 76 1009.2
20260506131611 59 90 0.0 0.0 0.00 1.21 0.83 78 1009.4
20260506130056 58 327 0.0 0.0 0.00 1.21 0.83 80 1009.4
20260506124552 57 73 0.0 0.0 0.00 1.22 0.83 83 1009.3
20260506123049 56 62 0.0 2.0 0.00 1.22 0.83 87 1009.4
20260506121547 55 131 0.0 1.0 0.00 1.22 0.83 89 1009.5
20260506120043 54 80 0.0 1.0 0.01 1.22 0.83 90 1009.6
20260506114545 54 93 0.0 2.0 0.01 1.67 0.83 91 1009.7
20260506113038 53 108 0.0 5.0 0.01 1.67 0.83 91 1009.7
20260506111534 53 67 0.0 1.0 0.00 1.66 0.83 91 1009.7
20260506110034 53 67 0.0 2.0 0.00 1.66 0.83 92 1009.8
20260506104533 53 67 0.0 1.0 0.01 1.66 0.83 92 1009.9
20260506103033 52 61 0.0 2.0 0.02 1.66 0.83 92 1009.9
20260506101531 52 70 0.0 2.0 0.03 1.66 0.83 92 1009.9
20260506100033 52 106 0.0 5.0 0.06 1.66 0.83 92 1009.7
20260506094525 52 88 0.0 2.0 0.06 1.65 0.82 92 1009.7
20260506093022 51 96 0.0 4.0 0.08 1.64 0.80 92 1009.5
20260506091521 51 76 0.0 2.0 0.09 1.63 0.80 92 1009.4
20260506090018 51 45 0.0 2.0 0.09 1.61 0.77 92 1009.2
20260506084517 51 55 0.0 1.0 0.09 1.58 0.75 92 1009.0
20260506083015 51 55 0.0 2.0 0.09 1.56 0.72 92 1008.9
20260506081520 51 55 0.0 2.0 0.12 1.53 0.69 92 1008.7
20260506073011 51 57 0.0 0.0 0.18 1.46 0.62 92 1008.3
20260506071510 51 57 0.0 0.0 0.17 1.41 0.56 92 1008.2
20260506061505 51 57 0.0 0.0 0.14 1.24 0.40 92 1007.5
20260506050108 51 60 0.0 0.0 0.13 1.06 0.22 92 1006.8
20260506044601 51 50 0.0 0.0 0.12 1.05 0.19 92 1006.7
20260506043059 51 48 0.0 0.0 0.11 1.02 0.16 92 1006.7
20260506041603 51 48 0.0 0.0 0.10 0.98 0.13 92 1006.7
20260506040056 52 48 0.0 0.0 0.09 0.95 0.09 92 1006.7
20260506034559 51 48 0.0 0.0 0.07 0.94 0.07 92 1006.7
20260506033052 51 48 0.0 0.0 0.05 0.92 0.05 91 1006.8
20260506031551 52 44 0.0 0.0 0.02 0.90 0.02 92 1006.9
20260506030053 52 44 0.0 0.0 0.01 0.88 0.01 91 1006.9
20260506024559 52 44 0.0 0.0 0.00 0.96 0.00 91 1007.0
20260506023051 52 44 0.0 0.0 0.00 0.96 0.00 92 1007.0
20260506021548 52 44 0.0 0.0 0.00 0.96 0.00 92 1007.0
20260506020104 52 44 0.0 0.0 0.00 0.96 0.00 91 1007.0
20260506014557 52 44 0.0 0.0 0.00 1.00 0.00 91 1007.0
20260506013044 52 44 0.0 0.0 0.00 1.00 0.00 91 1007.2
20260506011604 52 44 0.0 0.0 0.00 1.00 0.00 91 1007.4
20260506010041 52 55 0.0 0.0 0.00 1.00 0.00 91 1007.7
20260506004557 52 23 0.0 0.0 0.00 1.03 0.00 91 1007.8
20260506003037 52 355 0.0 0.0 0.00 1.03 0.00 91 1007.9
20260506001542 52 89 0.0 0.0 0.00 1.03 0.00 91 1008.2
20260506000056 52 85 0.0 0.0 0.00 1.13 0.00 91 1008.5
20260505234542 52 62 0.0 1.0 0.00 1.13 0.00 91 1008.6
20260505233031 52 96 0.0 0.0 0.00 1.13 0.00 90 1008.6
20260505231529 52 71 0.0 1.0 0.00 1.13 0.00 90 1008.7
20260505230049 52 55 0.0 2.0 0.00 1.20 0.00 90 1008.8
20260505224536 53 105 0.0 1.0 0.04 1.20 0.00 89 1008.8
20260505223026 53 115 0.0 1.0 0.06 1.20 0.00 89 1008.8
20260505221523 53 275 0.0 1.0 0.09 1.20 0.00 89 1008.8
20260505220021 53 275 0.0 6.0 0.13 1.22 1.20 88 1009.0
20260505214523 53 270 0.0 6.0 0.14 1.18 1.17 88 1009.1
20260505213023 53 304 3.0 10.0 0.28 1.15 1.13 88 1009.3
20260505211526 54 234 0.0 1.0 0.28 1.12 1.12 88 1009.4
20260505210017 55 288 0.0 0.0 0.22 1.08 1.06 87 1009.3
20260505204516 56 220 0.0 7.0 0.18 1.04 1.02 87 1009.5
20260505203016 58 119 0.0 0.0 0.00 0.86 0.84 86 1009.3
20260505201515 58 184 0.0 0.0 0.00 0.86 0.84 86 1009.0
20260505200014 58 198 0.0 0.0 0.00 0.86 0.84 86 1008.6
20260505194515 58 198 0.0 0.0 0.00 0.86 0.84 86 1008.5
20260505193015 58 198 0.0 0.0 0.00 0.86 0.84 86 1008.4
20260505191514 58 198 0.0 0.0 0.00 0.86 0.84 86 1008.1
20260505190013 59 198 0.0 0.0 0.00 0.86 0.84 84 1007.9
20260505184519 59 198 0.0 0.0 0.00 0.86 0.84 83 1007.5
20260505183016 59 198 0.0 0.0 0.00 0.86 0.84 83 1007.4
20260505181511 59 198 0.0 0.0 0.00 0.86 0.84 82 1007.6
20260505180012 59 198 0.0 0.0 0.00 0.86 0.84 81 1007.5
20260505174510 60 198 0.0 0.0 0.00 0.86 0.84 81 1007.4
20260505173010 60 198 0.0 0.0 0.00 0.86 0.84 81 1007.3
20260505171510 61 39 0.0 2.0 0.01 0.86 0.84 81 1007.3
20260505170011 62 90 0.0 0.0 0.02 0.86 0.84 84 1007.1
20260505164506 61 59 0.0 4.0 0.02 0.86 0.84 83 1007.7
20260505163006 63 329 0.0 0.0 0.02 0.86 0.84 80 1007.8
20260505161505 64 93 0.0 0.0 0.01 0.85 0.83 76 1008.0